Weather History for Central Park, NY

Change the Weather History Date:

Thursday, May 23, 2013

  Actual Average Record
Temperature  
Mean Temperature 72 °F 64 °F  
Max Temperature 80 °F 73 °F 94 °F (1964)
Min Temperature 64 °F 56 °F 43 °F (1963)
Degree Days  
Heating Degree Days 0 3  
Month to date heating degree days 99 118  
Since 1 July heating degree days 4589 4711  
Cooling Degree Days 7 2  
Month to date cooling degree days 38 32  
Year to date cooling degree days 40 44  
Growing Degree Days 22 (Base 50)    
Moisture  
Dew Point 66 °F    
Average Humidity 84    
Maximum Humidity 100    
Minimum Humidity 67    
Precipitation  
Precipitation 1.81 in 0.15 in 2.70 in (1979)
Month to date precipitation 7.04 3.00  
Year to date precipitation 18.26 18.60  
Snow  
Snow 0.00 in 0.00 in 0.00 in (2002)
Month to date snowfall 0.0 0.0  
Since 1 July snowfall 26.1 25.8  
Snow Depth 0.00 in    
Sea Level Pressure  
Sea Level Pressure 29.85 in    
Wind  
Wind Speed 5 mph (South)    
Max Wind Speed 12 mph    
Max Gust Speed 22 mph    
Visibility 5 miles    
Events Fog , Rain    
T = Trace of Precipitation, MM = Missing Value Source: NWS Daily Summary

Daily Weather History Graph

Daily Weather History Graph

Search for Another Location

Airport:

Trip Planner

Search our weather history database for the weather conditions in past years. The results will help you decide how hot, cold, wet, or windy it might be!

Date:

Astronomy

May. 23, 2013 Rise Set
Actual Time 5:31 AM EDT 8:14 PM EDT
Civil Twilight 4:59 AM EDT 8:46 PM EDT
Nautical Twilight 4:19 AM EDT 9:26 PM EDT
Astronomical Twilight 3:34 AM EDT 10:11 PM EDT
Moon 6:43 PM EDT (5/23) 4:15 AM EDT (5/23)
Length of Visible Light 15h 46m
Length of Day
14h 42m
Waxing Gibbous, 97% of the Moon is Illuminated
May 23
Waxing Gibbous
May 25
Full
May 31
Last Quarter
Jun 8
New
Jun 16
First Quarter

Hourly Weather History & Observations

Time (EDT) Temp. Dew Point Humidity Pressure Visibility Wind Dir Wind Speed Gust Speed Precip Events Conditions
12:51 AM 73.0 °F 66.9 °F 81% 29.88 in 7.0 mi Variable 3.5 mph - N/A   Mostly Cloudy
1:51 AM 72.0 °F 66.0 °F 81% 29.86 in 8.0 mi Variable 3.5 mph - N/A   Clear
2:51 AM 71.1 °F 64.9 °F 81% 29.85 in 9.0 mi Variable 3.5 mph - N/A   Clear
3:51 AM 71.1 °F 64.9 °F 81% 29.85 in 9.0 mi Variable 4.6 mph - N/A   Scattered Clouds
4:51 AM 71.1 °F 64.9 °F 81% 29.85 in 10.0 mi Variable 5.8 mph - N/A   Scattered Clouds
5:51 AM 70.0 °F 64.9 °F 84% 29.87 in 9.0 mi Variable 3.5 mph - N/A   Mostly Cloudy
6:51 AM 71.1 °F 66.0 °F 84% 29.88 in 6.0 mi Variable 6.9 mph - 0.00 in Rain Light Rain
7:46 AM 71.6 °F 66.2 °F 83% 29.91 in 8.0 mi WSW 8.1 mph 18.4 mph 0.00 in   Overcast
7:51 AM 72.0 °F 66.0 °F 81% 29.89 in 8.0 mi SW 9.2 mph 18.4 mph 0.00 in   Overcast
8:51 AM 72.0 °F 66.0 °F 81% 29.90 in 7.0 mi WSW 13.8 mph 21.9 mph N/A   Overcast
9:36 AM 73.9 °F 66.9 °F 79% 29.91 in 8.0 mi Variable 5.8 mph - N/A   Scattered Clouds
9:51 AM 75.0 °F 66.0 °F 73% 29.88 in 8.0 mi Variable 4.6 mph - N/A   Partly Cloudy
10:33 AM 75.9 °F 66.9 °F 74% 29.91 in 9.0 mi North - - N/A   Mostly Cloudy
10:51 AM 75.9 °F 66.9 °F 74% 29.88 in 8.0 mi Variable 5.8 mph - N/A   Mostly Cloudy
11:39 AM 77.0 °F 66.0 °F 69% 29.90 in 9.0 mi North - - N/A   Mostly Cloudy
11:51 AM 78.1 °F 66.0 °F 66% 29.86 in 8.0 mi Calm Calm - N/A   Mostly Cloudy
12:26 PM 73.0 °F 68.0 °F 84% 29.89 in 1.8 mi Variable 4.6 mph - 0.01 in Rain Light Rain
12:35 PM 72.0 °F 69.1 °F 91% 29.88 in 3.0 mi Variable 3.5 mph - 0.03 in Rain Light Rain
12:51 PM 77.0 °F 70.0 °F 79% 29.85 in 7.0 mi Variable 6.9 mph - 0.03 in   Mostly Cloudy
1:51 PM 79.0 °F 66.9 °F 66% 29.83 in 10.0 mi Variable 5.8 mph - N/A   Scattered Clouds
2:51 PM 73.9 °F 66.0 °F 76% 29.82 in 6.0 mi Variable 6.9 mph 21.9 mph N/A   Haze
2:59 PM 73.0 °F 66.9 °F 81% 29.86 in 1.8 mi SSW 10.4 mph 17.3 mph 0.00 in Rain Light Rain
3:08 PM 70.0 °F 68.0 °F 93% 29.88 in 0.2 mi SSE 8.1 mph 21.9 mph 0.26 in Fog , Rain Heavy Rain
3:19 PM 69.1 °F 68.0 °F 96% 29.85 in 1.2 mi North - - 0.41 in Rain Light Rain
3:22 PM 69.1 °F 68.0 °F 96% 29.85 in 4.0 mi North - - 0.41 in Rain Light Rain
3:28 PM 70.0 °F 68.0 °F 93% 29.88 in 1.5 mi North - - 0.42 in Rain Rain
3:36 PM 69.1 °F 68.0 °F 96% 29.85 in 0.2 mi Variable 6.9 mph - 0.60 in Fog , Rain Heavy Rain
3:48 PM 69.8 °F 68.0 °F 94% 29.86 in 0.8 mi SSE 5.8 mph - 0.70 in Rain Rain
3:51 PM 69.1 °F 68.0 °F 96% 29.83 in 0.5 mi Variable 6.9 mph - 0.74 in Fog , Rain Heavy Rain
4:14 PM 68.0 °F 66.9 °F 96% 29.87 in 0.2 mi North - - 0.59 in Fog , Rain Heavy Rain
4:32 PM 68.0 °F 68.0 °F 100% 29.85 in 2.5 mi Calm Calm - 0.99 in Rain Light Rain
4:34 PM 69.1 °F 68.0 °F 96% 29.85 in 4.0 mi South 3.5 mph - 0.99 in   Mostly Cloudy
4:43 PM 68.0 °F 68.0 °F 100% 29.85 in 3.0 mi SSE 5.8 mph - 0.99 in   Overcast
4:51 PM 68.0 °F 66.9 °F 96% 29.82 in 3.0 mi Variable 4.6 mph - 0.99 in   Overcast
5:07 PM 66.9 °F 66.0 °F 97% 29.85 in 2.5 mi Variable 5.8 mph - N/A   Overcast
5:17 PM 66.9 °F 64.9 °F 93% 29.85 in 3.0 mi Variable 4.6 mph - N/A   Overcast
5:24 PM 66.9 °F 66.0 °F 97% 29.84 in 2.5 mi SSE 5.8 mph - N/A   Overcast
5:49 PM 66.2 °F 66.2 °F 100% 29.84 in 3.0 mi South 4.6 mph - 0.00 in Rain Light Rain
5:51 PM 66.9 °F 66.0 °F 97% 29.82 in 3.0 mi Variable 5.8 mph - 0.00 in Rain Light Rain
6:02 PM 66.9 °F 66.0 °F 97% 29.85 in 1.8 mi SSE 3.5 mph - 0.00 in Rain Rain
6:18 PM 66.9 °F 64.9 °F 93% 29.84 in 2.5 mi Calm Calm - 0.03 in   Overcast
6:34 PM 66.9 °F 66.0 °F 97% 29.83 in 2.5 mi Variable 3.5 mph - 0.03 in   Overcast
6:47 PM 66.2 °F 66.2 °F 100% 29.83 in 3.0 mi Calm Calm - 0.03 in   Overcast
6:51 PM 66.9 °F 66.0 °F 97% 29.80 in 3.0 mi North - - 0.03 in   Mostly Cloudy
7:22 PM 66.0 °F 64.9 °F 96% 29.84 in 2.5 mi Variable 3.5 mph - 0.00 in Rain Light Rain
7:37 PM 66.0 °F 64.9 °F 96% 29.84 in 2.5 mi Calm Calm - 0.01 in Rain Light Rain
7:49 PM 66.0 °F 64.9 °F 96% 29.81 in 4.0 mi Calm Calm - 0.02 in   Overcast
8:08 PM 66.0 °F 64.9 °F 96% 29.83 in 6.0 mi SSE 4.6 mph - N/A   Mostly Cloudy
8:51 PM 66.0 °F 64.0 °F 93% 29.82 in 7.0 mi SSE 5.8 mph - N/A   Overcast
9:51 PM 64.9 °F 64.0 °F 97% 29.80 in 7.0 mi SSE 3.5 mph - N/A   Mostly Cloudy
10:05 PM 64.9 °F 63.0 °F 93% 29.82 in 7.0 mi Variable 4.6 mph - N/A   Overcast
10:51 PM 64.9 °F 63.0 °F 93% 29.79 in 7.0 mi Variable 4.6 mph - N/A   Overcast
11:08 PM 64.9 °F 64.0 °F 97% 29.80 in 6.0 mi Variable 3.5 mph - N/A   Overcast
11:17 PM 64.9 °F 64.0 °F 97% 29.80 in 5.0 mi Calm Calm - N/A   Overcast
11:51 PM 64.9 °F 63.0 °F 93% 29.77 in 6.0 mi South 4.6 mph - N/A   Overcast